NOAA 16 DEB, 41523

Orbit data source: Space-Track

NOAA 16 DEB, 41523 is space debris in SSO originally from a launch on Thu, 21 Sep 2000 UTC launched from the Air Force Western Test Range (AFWTR). Debris objects in space refer to the collection of defunct objects orbiting the Earth. Examples of debris include non-operational satellites, rocket bodies, and fragments generated from explosions, collisions, or faulty payload assembly.

Loading next visibility...
Identifier
41523, 2000-055MX
Orbit
SSO
Country
Flag of USUS
Related business
Manufacturer
Unknown
Mission
Spacecraft
Bus & Motor
Unknown
Mass
Unknown
Launch date (UTC)
2000-09-21 (25 years ago)
Launch vehicle
Unknown
Launch site
Air Force Western Test Range (AFWTR)
Object type
Payload
Rocket body
Debris
Shape & HBR
Unknown shape, 0.1 m
Radar Cross Section
Small (<0.1 m²)

Expand to show TLE details & history
Last TLE update: 1 day ago

TLE from 1 day ago
0 NOAA 16 DEB
1 41523U 00055MX  25299.48614292  .00004399  00000-0  18792-2 0  9992
2 41523  98.7296  17.0903 0008410  33.1358 327.0347 14.25484371491047
Epoch: 2025-10-26T11:40Z
TLE epoch observation values (Epoch: 2025-10-26T11:40:02.748Z)
Latitude
0.00001°
Longitude
166.9772°
Altitude
804.717 km
Speed
7.454 km/s
True Right ascension
01h 08m 21s
True Declination
0° 00' 00"
Sunlit
Object was in full shadow at epoch
Visualization orbit readout
Latitude
Unknown
Longitude
Unknown
Altitude
Unknown
Speed
Unknown
Apparent Right ascension
Unknown
Apparent Declination
Unknown
Sunlit
N/A
Visualization observer readout
Local Sidereal Time
09:58:03
Azimuth
Unknown
Elevation
Unknown
Doppler factor
Unknown
Orbital elements
Apogee altitude
810.057 km
Perigee altitude
797.977 km
Semi-major axis
7,182.154 km
Eccentricity
0.00084
Inclination
98.7296°
RAAN
17.0903°
Arg. of periapsis
33.1358°
True anomaly
326.98221°
Mean anomaly
327.0347°
Eccentric anomaly
327.00846°
Mean motion
3.56583 °/min
Orbital period
100.96 mins
BSTAR
0.0018792
Loading maneuver chart data...
Computing Atmospheric mass density...
Loading historical data...
Loading historical data...
Loading historical data...
Loading historical data...
Loading historical data...
Loading historical data...
Loading historical data...

Documentation

Showing up to 5 results
|